Volver al catálogo

VOLGA R/B

ActivoCienciaSSO
NORAD 68756·ROCKET BODY·🇷🇺 Russia

Lanzado Apr 16, 2026 desde Plesetsk Cosmodrome

Loading…

Próximos Pases (próximas 24 horas)

TLE

ActualizadoSource: Space-Track

Época: Sep 14, 2026, 14:37 UTC

1 68756U 26083D   26257.60911277  .00006799  00000-0  21160-3 0  9990
2 68756  96.9255  28.9041 0015912  91.1713 269.1354 15.33464251 23069

Sigue VOLGA R/B en tiempo real con AllMySat

Download on the App Store